This is the latest recevied weather packets stored in our database for station/object KA9CBS. If no packets are shown the sender has not sent any weather packets the latest 10 day(s).
| Time | Temp. | Humidity | Pressure | Rain* | Wind** | Luminosity | Snow |
|---|---|---|---|---|---|---|---|
| 1777814244 | 9.44° C | 84% | 1021.3 hPa | 0 mm | - | 210 W/m² | - |
| 1777813941 | 9.44° C | 83% | 1021.2 hPa | 0 mm | - | 194 W/m² | - |
| 1777813639 | 9.44° C | 84% | 1021.4 hPa | 0 mm | - | 178 W/m² | - |
| 1777813336 | 9.44° C | 83% | 1021.2 hPa | 0 mm | - | 161 W/m² | - |
| 1777813034 | 8.89° C | 85% | 1021.2 hPa | 0 mm | - | 145 W/m² | - |
| 1777812731 | 8.89° C | 84% | 1021.2 hPa | 0 mm | - | 131 W/m² | - |
| 1777812427 | 8.89° C | 85% | 1021.4 hPa | 0 mm | - | 67 W/m² | - |
| 1777812126 | 8.33° C | 86% | 1021.2 hPa | 0 mm | - | 64 W/m² | - |
| 1777811824 | 8.33° C | 87% | 1021.1 hPa | 0 mm | - | 62 W/m² | - |
| 1777811521 | 8.33° C | 88% | 1021.4 hPa | 0 mm | - | 58 W/m² | - |
| 1777811216 | 7.78° C | 89% | 1021.2 hPa | 0 mm | - | 53 W/m² | - |
| 1777810914 | 7.78° C | 89% | 1021.1 hPa | 0 mm | - | 46 W/m² | - |
| 1777810610 | 7.78° C | 91% | 1021.3 hPa | 0 mm | - | 42 W/m² | - |
| 1777810308 | 7.22° C | 92% | 1020.8 hPa | 0 mm | - | 40 W/m² | - |
| 1777810003 | 6.67° C | 93% | 1020.9 hPa | 0 mm | - | 39 W/m² | - |
| 1777809702 | 6.67° C | 95% | 1020.9 hPa | 0 mm | - | 36 W/m² | - |
| 1777809398 | 6.11° C | 96% | 1020.8 hPa | 0 mm | - | 34 W/m² | - |
| 1777809096 | 6.11° C | 97% | 1020.8 hPa | 0 mm | - | 31 W/m² | - |
| 1777808794 | 6.11° C | 97% | 1020.8 hPa | 0 mm | - | 29 W/m² | - |
| 1777808490 | 5.56° C | 97% | 1021 hPa | 1.27 mm | - | 24 W/m² | - |
| 1777808188 | 5.56° C | 97% | 1020.7 hPa | 1.27 mm | - | 22 W/m² | - |
| 1777807886 | 5.56° C | 97% | 1021.1 hPa | 0 mm | - | 19 W/m² | - |
| 1777807584 | 5.56° C | 97% | 1020.9 hPa | 0 mm | - | 16 W/m² | - |
| 1777807281 | 5.56° C | 96% | 1021 hPa | 0 mm | - | 13 W/m² | - |
| 1777806976 | 5.56° C | 97% | 1021 hPa | 0 mm | - | 10 W/m² | - |
* Rain latest hour (hover to see other rain measurements)
** Current wind speed in m/s (hover to see current wind gust speed)